Flag for U.S.A. Weather past 2 weeks in Post Falls, Idaho, U.S.A.

Now
34 °F

Clear.


Feels Like: 27 °F
Forecast: 28 / 51 °F
Wind: 8 mph from South

Location: Coeur d'Alene Weather Reporting System

Current Time: Apr 2, 2015 at 12:59:32 AM

Latest Report: Apr 2, 2015 at 12:35 AM


Visibility: 10 mi

Pressure: 30.15 "Hg

Humidity: 81%

Dew point: 28 °F

Location of Post FallsLocation

Historic Weather in Post Falls — Graph

°F

Post Falls temperature yesterday

Maximum temperature yesterday: 48 °F (at 12:55 PM)
Minimum temperature yesterday: 30 °F (at 6:15 AM)
Average temperature yesterday: 38 °F

Past Weeks' High & Low Weather Summary

 TemperatureHumidityPressure
High72 °F (Mar 27, 3:55 PM)100% (Mar 27, 7:55 AM)30.33 "Hg (Mar 27, 7:55 AM)
Low30 °F (Mar 22, 4:55 AM)11% (Mar 31, 7:55 PM)29.79 "Hg (Mar 31, 4:35 AM)
Average46 °F72%30.07 "Hg
* Reported Mar 17 11:15 PM — Apr 1 11:35 PM, Post Falls, Weather by CustomWeather, © 2015

Note: Actual official high and low records may vary slightly from our data, if they occured in-between our weather recording intervals... More about our weather records

Advertising

Post Falls weather history for previous 24 hours

 ConditionsComfort  
Time TempWeatherWind HumidityBarometerVisibility
11:35 PM
Wed, Apr 1
36 °FClear.8 mph75%30.14 "Hg10 mi
11:15 PM36 °FClear.9 mph81%30.13 "Hg10 mi
10:55 PM36 °FClear.9 mph81%30.13 "Hg10 mi
10:35 PM36 °FClear.9 mph81%30.13 "Hg10 mi
10:15 PM36 °FClear.9 mph81%30.13 "Hg10 mi
9:55 PM36 °FClear.8 mph81%30.13 "Hg10 mi
9:35 PM36 °FClear.6 mph75%30.12 "Hg10 mi
9:15 PM37 °FClear.9 mph75%30.12 "Hg10 mi
8:55 PM37 °FClear.7 mph75%30.12 "Hg10 mi
8:35 PM37 °FClear.8 mph75%30.12 "Hg10 mi
7:55 PM37 °FSunny.No wind75%30.11 "Hg10 mi
7:35 PM37 °FSunny.No wind75%30.11 "Hg10 mi
7:15 PM39 °FSunny.8 mph70%30.10 "Hg10 mi
6:55 PM39 °FScattered clouds.7 mph70%30.11 "Hg10 mi
6:35 PM41 °FScattered clouds.5 mph70%30.11 "Hg10 mi
6:15 PM41 °FSunny.5 mph70%30.10 "Hg10 mi
5:55 PM39 °FSunny.9 mph81%30.09 "Hg10 mi
5:35 PM39 °FPassing clouds.9 mph75%30.09 "Hg10 mi
5:15 PM39 °FPassing clouds.8 mph75%30.09 "Hg10 mi
4:55 PM41 °FPartly sunny.9 mph76%30.09 "Hg10 mi
4:35 PM43 °FScattered clouds.6 mph71%30.09 "Hg10 mi
4:15 PM41 °FScattered clouds.6 mph70%30.09 "Hg10 mi
3:55 PM43 °FPassing clouds.5 mph76%30.10 "Hg10 mi
3:35 PM39 °FPassing clouds.8 mph81%30.11 "Hg10 mi
3:15 PM36 °FCloudy.3 mph81%30.11 "Hg7 mi
2:55 PM39 °FCloudy.20 mph70%30.11 "Hg10 mi
2:35 PM39 °FBroken clouds.8 mph81%30.11 "Hg10 mi
2:15 PM37 °FMostly cloudy.13 mph87%30.10 "Hg10 mi
1:55 PM39 °FBroken clouds.23 mph87%30.11 "Hg8 mi
1:35 PM45 °FCloudy.14 mph49%30.09 "Hg10 mi
1:15 PM46 °FPartly sunny.15 mph37%30.08 "Hg10 mi
12:55 PM48 °FScattered clouds.9 mph46%30.09 "Hg10 mi
12:35 PM46 °FPassing clouds.10 mph50%30.10 "Hg10 mi
12:15 PM45 °FPassing clouds.14 mph53%30.11 "Hg10 mi
11:55 AM46 °FScattered clouds.10 mph53%30.12 "Hg10 mi
11:35 AM45 °FPartly sunny.8 mph57%30.12 "Hg10 mi
11:15 AM45 °FCloudy.12 mph53%30.12 "Hg10 mi
10:55 AM45 °FBroken clouds.12 mph57%30.13 "Hg10 mi
10:35 AM43 °FMostly cloudy.12 mph61%30.14 "Hg10 mi
10:15 AM41 °FBroken clouds.8 mph66%30.14 "Hg10 mi
9:55 AM39 °FPartly sunny.8 mph70%30.14 "Hg10 mi
9:35 AM37 °FPartly sunny.7 mph75%30.13 "Hg10 mi
9:15 AM37 °FSunny.No wind75%30.13 "Hg10 mi
8:55 AM37 °FScattered clouds.No wind75%30.13 "Hg10 mi
8:35 AM37 °FScattered clouds.3 mph75%30.13 "Hg10 mi
8:15 AM37 °FPassing clouds.5 mph75%30.13 "Hg10 mi
7:55 AM36 °FPassing clouds.6 mph81%30.13 "Hg10 mi
7:35 AM34 °FSunny.No wind81%30.12 "Hg10 mi
7:15 AM32 °FClear.7 mph80%30.12 "Hg10 mi
6:55 AM30 °FPassing clouds.No wind80%30.11 "Hg10 mi
6:35 AM30 °FPassing clouds.6 mph75%30.10 "Hg10 mi
6:15 AM30 °FPassing clouds.5 mph80%30.10 "Hg10 mi
5:55 AM32 °FPassing clouds.3 mph75%30.09 "Hg10 mi
5:35 AM32 °FPassing clouds.6 mph75%30.09 "Hg10 mi
5:15 AM32 °FPassing clouds.3 mph75%30.09 "Hg10 mi
4:55 AM34 °FClear.6 mph70%30.08 "Hg10 mi
4:35 AM32 °FClear.No wind75%30.08 "Hg10 mi
4:15 AM34 °FClear.3 mph70%30.07 "Hg10 mi
3:55 AM34 °FClear.No wind70%30.06 "Hg10 mi
3:35 AM34 °FClear.No wind70%30.06 "Hg10 mi
3:15 AM34 °FClear.6 mph70%30.05 "Hg10 mi
2:55 AM34 °FClear.No wind70%30.04 "Hg10 mi
2:35 AM34 °FClear.5 mph60%30.04 "Hg10 mi
2:15 AM36 °FClear.7 mph60%30.03 "Hg10 mi
1:55 AM34 °FClear.7 mph65%30.02 "Hg10 mi
1:35 AM37 °FClear.6 mph56%30.01 "Hg10 mi
1:15 AM34 °FClear.5 mph60%30.01 "Hg10 mi
12:55 AM36 °FClear.8 mph56%29.99 "Hg10 mi
12:35 AM36 °FClear.N/A60%29.98 "Hg10 mi
12:15 AM37 °FClear.10 mph52%29.97 "Hg10 mi
Weather by CustomWeather, © 2015

See weather overviewHow to use our weather pages